Lapse_Rate
6.2 5.9 5.3 5.7 6.3 6.2 6.0 6.1 6.1 5.6 6.2 6.0 6.0 6.1 5.9 6.2 6.3 6.4 6.3 6.3 6.2 6.2 6.1 6.2 6.3 6.4 6.5 6.4 6.3 6.2 6.0 5.9 5.8 5.6 5.6 5.7 5.7 5.7 5.7 5.8 6.0 6.0 5.9 5.8
6.3 6.2 6.2 6.2 6.1 6.1 6.1 5.8 5.6 6.0 6.0 5.9 5.6 6.4 6.3 6.1 6.5 6.4 6.4 6.3 6.2 6.1 6.2 6.3 6.3 6.2 6.1 6.0 5.8 5.8 5.7 5.6 5.4 5.4 5.6 5.7 5.8 5.8 5.8 5.8 5.7 5.8 5.9 5.9
6.4 6.3 6.2 6.1 5.9 5.9 6.1 5.6 5.7 5.7 5.8 5.7 5.8 6.1 6.6 6.6 6.5 6.4 6.4 6.3 6.2 6.2 6.1 5.9 5.7 5.6 5.6 5.6 5.5 5.4 5.2 5.1 5.0 5.1 5.3 5.5 5.7 5.7 5.9 6.0 6.1 6.1 6.2 6.2
6.4 6.2 6.1 6.1 6.0 6.0 5.9 5.9 5.8 5.7 5.6 5.2 5.4 5.4 6.0 6.1 6.4 6.6 6.4 6.4 6.1 5.9 5.7 5.5 5.4 5.4 5.3 5.4 5.4 5.2 4.9 4.9 5.0 5.2 5.3 5.4 5.7 5.9 6.0 6.2 6.3 6.2 6.2 6.1
6.0 6.0 5.9 6.0 6.1 6.0 6.0 5.8 5.8 5.6 5.4 5.0 4.9 4.6 5.6 6.1 6.6 6.4 6.4 6.1 5.9 5.7 5.6 5.4 5.4 5.4 5.3 5.3 5.2 5.1 5.1 5.2 5.3 5.3 5.6 5.8 6.0 6.7 6.6 6.7 6.6 6.4 6.0 5.5
6.3 5.9 5.9 5.9 5.7 5.7 5.6 5.6 5.5 5.4 5.1 4.3 4.9 4.5 4.6 6.1 5.9 6.0 6.0 6.0 5.8 5.6 5.5 5.4 5.5 5.5 5.3 5.3 5.4 5.5 5.5 5.4 5.6 5.8 6.3 6.5 6.4 6.8 6.9 6.7 5.8 5.5 5.2 5.1
6.1 6.1 6.0 5.6 5.4 5.4 5.3 5.2 4.8 4.8 4.4 5.3 4.6 3.9 5.6 5.7 6.0 5.9 5.9 5.7 5.6 5.4 5.3 5.4 5.4 5.2 5.4 5.7 5.8 5.7 5.6 5.7 6.0 6.1 6.2 6.5 6.6 6.9 6.3 5.6 5.5 5.5 5.4 5.3
5.7 5.3 5.6 5.6 5.5 5.3 5.1 5.2 5.3 5.6 5.8 6.0 5.0 4.3 6.0 6.4 6.2 6.1 6.0 5.8 5.5 5.4 5.4 5.4 5.3 5.5 5.8 5.8 6.0 6.2 6.0 5.7 5.9 6.0 6.3 6.5 6.6 6.2 5.6 5.8 5.9 6.0 5.7 5.2
5.5 5.5 5.4 5.3 5.3 5.2 5.0 5.0 5.2 4.8 4.5 4.2 5.6 5.4 6.4 6.5 6.5 6.2 5.9 5.7 5.6 5.6 5.6 5.5 5.4 5.7 6.4 6.3 6.3 6.2 5.9 5.8 6.2 6.4 6.6 6.5 6.2 6.0 6.1 6.1 6.3 6.0 5.8 5.6
6.2 5.7 5.5 5.6 5.4 5.4 5.2 5.2 4.9 4.9 5.1 5.5 6.2 5.5 6.4 6.4 6.3 6.2 6.0 5.7 5.6 5.5 5.4 5.5 5.9 6.4 6.3 6.4 6.5 6.5 6.5 6.3 6.7 6.9 6.9 6.7 6.5 6.5 6.4 6.5 6.4 6.5 6.3 6.2
5.9 5.8 5.0 5.3 5.4 5.2 5.2 4.8 5.0 5.1 5.0 5.8 6.0 6.2 6.7 6.2 6.2 6.0 5.8 5.5 5.5 5.4 5.6 6.0 6.3 6.3 6.5 6.8 6.7 6.9 6.9 7.0 7.0 7.0 6.9 6.7 6.6 6.7 6.7 6.6 6.7 6.8 6.7 6.6
5.7 5.5 5.1 5.0 5.3 5.3 4.7 4.6 4.7 5.1 5.3 4.9 4.6 4.7 6.2 6.4 6.0 6.1 5.9 6.0 6.0 6.0 6.0 6.0 6.2 6.4 6.9 6.9 7.0 7.2 6.9 6.7 6.8 6.9 6.8 6.7 6.7 6.7 6.6 6.7 6.9 7.0 6.9 6.7
5.5 4.9 5.1 4.8 4.5 4.8 4.9 5.2 4.9 4.4 4.1 4.7 5.3 6.2 6.3 6.6 6.5 6.4 6.3 6.3 6.3 6.2 6.0 6.0 6.2 6.5 6.7 6.9 7.0 7.0 6.8 6.8 6.8 6.8 6.7 6.7 6.8 6.7 6.8 6.8 7.0 7.0 6.9 6.9
5.6 5.4 5.4 5.7 5.1 5.1 5.3 5.3 5.0 4.1 4.2 5.0 5.0 5.8 6.2 5.7 5.7 5.8 5.9 5.9 6.1 6.2 6.1 6.2 6.5 6.8 6.7 6.9 6.8 6.9 6.7 6.7 6.8 6.7 6.6 6.7 6.7 6.8 7.0 6.9 6.9 6.9 6.9 6.8
5.2 5.2 5.1 5.4 5.4 5.0 5.0 4.8 4.2 4.0 5.0 4.5 5.2 5.2 6.1 5.0 4.8 5.4 5.9 5.9 6.2 6.4 6.5 6.5 6.8 6.9 6.8 6.8 6.8 6.8 6.8 6.7 6.7 6.7 6.6 6.6 6.7 6.8 6.8 6.7 6.7 6.7 6.7 6.6
4.9 4.5 4.7 5.2 5.3 4.7 4.5 4.7 4.2 4.1 4.1 3.9 3.9 5.9 5.1 5.7 5.6 5.6 5.6 6.1 6.4 6.5 6.6 6.8 6.9 7.0 6.8 6.8 6.9 6.8 6.7 6.6 6.6 6.4 6.5 6.6 6.7 6.7 6.7 6.7 6.7 6.6 6.6 6.4
4.1 4.0 3.8 4.3 4.4 4.1 4.4 5.8 5.5 5.4 5.2 5.0 4.3 6.3 5.3 5.4 5.2 5.8 6.4 6.2 6.3 6.4 6.7 6.9 6.9 6.8 6.7 6.8 6.9 6.7 6.6 6.6 6.5 6.5 6.5 6.5 6.5 6.5 6.5 6.5 6.5 6.5 6.5 6.4
3.2 3.2 3.3 3.7 4.1 4.8 5.7 6.0 5.7 5.6 5.6 5.2 5.9 5.7 5.6 6.2 6.4 6.4 6.3 6.6 6.6 6.8 7.0 7.0 6.9 6.9 6.9 6.9 6.8 6.7 6.6 6.5 6.4 6.5 6.5 6.4 6.4 6.5 6.4 6.5 6.5 6.4 6.4 6.4
3.7 3.2 3.5 3.7 4.1 4.8 5.7 5.8 5.7 5.6 5.6 5.7 5.8 5.5 5.6 5.9 6.1 6.3 6.5 6.6 6.6 6.8 7.0 7.0 6.9 6.9 6.8 6.8 6.8 6.7 6.6 6.5 6.6 6.5 6.5 6.4 6.4 6.4 6.4 6.4 6.4 6.3 6.3 6.2
3.6 3.5 3.3 3.6 3.7 4.9 5.4 5.6 5.6 5.5 5.6 5.5 5.5 5.5 5.6 5.8 6.0 5.4 6.5 6.5 6.5 6.5 6.7 6.8 6.8 6.8 6.8 6.9 6.8 6.7 6.6 6.7 6.6 6.8 6.7 6.6 6.6 6.5 6.5 6.5 6.4 6.3 6.3 6.3
3.6 2.3 2.6 3.1 3.5 4.4 5.7 5.8 5.4 5.4 5.6 5.5 5.5 5.3 5.2 5.2 5.4 6.1 6.4 6.7 6.5 6.4 6.5 6.7 6.8 6.9 6.8 6.9 7.0 6.8 6.6 6.6 6.6 6.9 6.8 6.6 6.6 6.5 6.5 6.4 6.4 6.3 6.3 6.3
4.7 3.9 3.1 2.8 3.6 4.3 6.0 5.6 5.3 5.3 5.1 5.3 5.3 5.3 5.5 5.5 5.5 5.7 6.0 6.3 6.5 6.6 6.6 6.7 6.8 6.7 6.5 6.6 6.8 6.7 6.6 6.3 6.5 6.7 6.7 6.5 6.4 6.4 6.4 6.4 6.3 6.3 6.3 6.3
4.4 4.9 4.0 5.3 6.2 6.4 5.8 5.4 5.1 5.0 4.9 5.0 4.7 4.8 4.9 5.4 5.7 5.8 6.0 6.0 6.2 6.5 6.7 6.7 6.8 6.9 6.7 6.6 6.6 6.7 6.5 6.6 6.6 6.7 6.6 6.5 6.4 6.4 6.3 6.1 6.1 6.1 6.1 6.0
5.3 5.2 5.3 5.3 6.3 6.2 5.5 4.9 4.8 4.8 4.6 4.5 4.7 4.8 5.0 5.3 5.7 6.0 6.0 6.1 6.2 6.3 6.5 6.6 6.7 6.8 6.8 6.6 6.7 6.8 6.7 6.6 6.8 6.9 6.7 6.5 6.4 6.2 6.0 6.0 5.9 6.0 6.0 6.0
5.0 5.2 4.8 5.1 5.7 5.3 5.2 5.1 4.8 4.8 4.6 4.5 4.8 4.9 5.0 5.3 5.7 5.9 6.3 6.4 6.3 6.3 6.3 6.3 6.4 6.4 6.5 6.6 6.7 6.8 6.8 6.6 6.6 6.5 6.3 6.2 6.1 5.9 5.8 5.8 5.8 5.7 5.6 5.5
5.5 5.5 4.3 4.1 4.8 4.2 4.8 4.7 5.3 5.1 5.2 5.1 4.9 5.1 5.3 5.2 5.4 5.7 6.0 6.3 6.2 6.3 6.2 6.2 6.2 6.1 6.1 6.2 6.2 6.2 6.4 6.5 6.5 6.4 6.3 6.1 6.0 6.1 5.9 5.8 5.8 5.8 5.5 5.4
Wind_Speed
6 7 7 6 2 2 6 5 6 4 3 4 9 12 11 10 14 15 14 13 10 8 4 4 3 4 4 6 5 6 7 7 6 6 7 7 7 8 8 10 15 16 17 19
6 7 5 3 4 6 4 6 4 4 2 4 8 16 15 13 16 16 14 13 11 8 7 6 4 4 4 5 6 6 7 8 7 6 6 7 7 7 8 10 13 14 16 17
8 7 2 6 7 8 8 3 3 4 4 3 9 12 14 9 6 7 9 10 9 8 6 4 4 4 4 5 6 7 8 8 8 9 7 7 7 7 8 8 8 9 15 16
9 3 4 6 7 6 3 4 3 4 3 2 3 5 9 7 10 9 9 10 10 9 7 6 6 6 5 5 5 7 7 8 8 9 9 11 9 9 8 8 8 9 15 13
2 6 6 8 4 4 3 2 3 3 2 3 5 3 5 5 9 12 10 11 10 8 7 6 7 6 6 5 5 6 7 8 9 9 9 6 7 7 8 7 11 11 10 13
9 3 5 4 6 7 7 1 1 2 2 3 3 3 2 7 5 1 1 7 8 7 6 7 6 6 6 4 4 5 8 8 8 8 8 8 9 9 8 8 8 8 7 7
5 5 3 2 3 3 1 2 2 2 2 4 2 3 11 6 3 2 3 5 5 6 7 6 6 5 5 4 4 6 7 9 8 8 7 8 9 9 10 9 7 9 7 7
3 2 0 3 2 0 1 1 1 4 2 4 3 6 3 2 0 4 6 5 5 7 7 6 7 6 6 5 5 6 7 8 7 7 8 8 9 6 6 8 8 8 8 8
3 3 3 2 1 1 2 2 2 3 1 3 5 5 13 11 10 8 7 6 6 5 6 8 8 8 7 5 4 5 7 6 6 7 7 9 7 7 8 11 9 7 9 8
2 3 1 3 1 2 3 3 2 2 3 5 4 5 5 3 4 6 10 6 4 1 6 9 9 7 6 4 3 4 5 5 6 6 6 7 9 7 7 7 7 9 9 10
1 0 3 2 7 7 4 3 5 3 3 3 5 3 4 4 5 4 8 8 5 4 8 10 8 6 5 4 4 4 4 4 5 5 6 7 7 9 8 7 6 7 8 9
2 1 3 4 3 3 9 8 9 4 4 4 4 7 5 4 3 4 6 7 8 8 10 9 7 6 5 6 5 4 4 4 5 6 7 8 8 8 8 7 7 7 8 7
2 2 2 4 5 3 6 9 10 8 1 8 4 4 2 2 3 6 8 9 8 10 12 8 7 6 7 7 6 5 4 4 5 6 6 7 7 8 8 8 8 8 8 7
2 2 6 3 2 1 4 8 13 11 6 7 14 15 19 17 13 9 8 10 12 12 13 9 7 8 8 7 7 5 5 5 6 6 6 7 7 8 8 8 8 7 7 7
2 5 8 11 13 13 16 16 14 18 21 11 13 17 21 15 13 13 12 13 14 13 11 9 9 7 7 7 7 6 6 6 6 6 6 7 7 7 7 7 7 7 7 7
3 4 6 7 13 13 17 19 21 23 23 27 26 31 25 21 10 4 5 7 9 11 12 11 11 10 9 8 8 7 7 6 6 7 7 6 7 7 7 7 6 6 6 6
4 3 4 5 1 10 15 18 22 19 20 21 21 26 19 18 16 15 13 13 14 14 13 13 11 9 8 8 8 8 8 6 7 7 7 7 7 8 8 7 7 6 6 6
4 5 4 7 10 4 3 5 4 6 15 18 22 23 21 19 17 16 16 16 15 12 9 7 6 7 8 7 8 8 7 7 7 7 8 7 8 8 8 7 7 6 6 6
6 6 4 4 7 15 2 2 1 6 3 6 16 16 13 10 9 13 3 2 4 5 7 7 6 7 6 6 7 7 7 8 8 9 9 8 8 8 8 7 7 6 5 6
6 7 5 0 4 4 3 2 0 1 3 4 2 7 9 3 5 6 3 4 5 6 6 7 7 7 7 7 6 8 9 9 9 9 8 8 7 8 8 7 7 6 6 6
4 5 11 9 6 8 7 8 3 3 3 3 5 7 8 6 8 10 9 9 9 9 9 8 8 8 9 7 7 9 10 10 9 8 8 8 8 9 8 7 6 6 6 6
9 8 5 6 6 8 9 6 5 2 2 6 12 11 11 12 14 14 14 14 12 11 11 11 9 8 8 7 8 10 12 10 9 8 9 9 9 7 6 8 7 8 7 8
5 6 3 9 6 3 7 12 6 7 9 14 15 13 12 14 14 13 13 14 13 12 11 10 9 10 8 7 8 11 12 9 9 9 10 10 10 9 9 9 8 7 7 6
7 10 5 3 6 16 15 13 16 16 15 14 13 14 13 17 16 17 16 14 12 9 9 7 8 9 10 9 10 11 11 10 9 10 10 9 9 9 9 7 6 7 7 7
1 7 8 13 17 18 13 3 7 7 8 11 15 16 17 17 18 18 15 15 12 11 8 6 8 9 11 11 11 10 9 9 9 10 9 9 8 9 8 9 8 8 9 7
10 12 9 9 15 13 14 12 10 14 17 15 16 17 17 16 17 16 14 12 12 10 7 7 8 10 10 10 11 10 9 9 9 9 7 7 7 6 6 6 7 11 13 11
Wind_Direction
22 121 114 87 59 25 153 180 178 71 41 305 251 268 268 234 231 248 252 253 253 245 230 218 252 283 286 276 287 301 309 313 317 316 316 318 314 310 305 301 304 298 293 290
98 99 78 84 87 96 136 142 101 119 38 308 298 284 270 251 242 242 254 258 247 234 220 212 243 272 262 291 299 310 314 317 317 309 312 302 299 295 293 290 285 284 286 288
92 91 109 104 88 99 55 45 88 5 326 254 305 273 254 228 270 248 246 255 239 231 231 235 280 286 278 285 308 316 320 318 314 309 303 294 291 289 294 294 306 301 304 301
68 51 94 97 74 353 124 34 48 20 11 280 342 288 272 248 216 217 224 216 222 212 222 250 291 285 276 293 307 306 312 313 307 312 305 301 300 297 290 292 290 293 290 295
74 80 71 59 20 356 98 85 61 47 61 329 192 253 259 246 258 240 224 217 212 214 230 267 293 279 276 288 306 306 310 311 316 317 322 315 296 292 287 293 294 292 291 276
89 85 39 69 59 66 130 138 75 100 111 250 133 247 258 249 279 152 218 191 209 215 256 282 281 262 262 264 292 314 316 319 326 323 315 306 294 293 297 300 296 292 308 297
73 33 77 18 88 113 352 256 324 241 204 278 130 239 256 256 219 234 143 167 209 248 268 274 270 272 286 297 309 315 324 324 332 325 326 320 309 303 296 301 305 304 289 287
158 166 33 18 42 52 135 173 267 273 282 332 161 238 261 333 344 254 252 244 266 268 259 260 282 295 297 296 305 320 322 325 329 335 340 321 306 300 308 309 290 276 284 304
152 121 127 65 39 6 140 226 29 303 141 262 244 261 269 243 244 226 221 234 256 258 269 282 292 296 297 288 305 313 317 321 331 342 334 311 305 322 293 277 275 285 291 295
104 108 203 113 230 171 269 137 169 178 279 271 237 250 252 282 268 231 208 205 197 246 305 299 294 297 284 269 287 305 306 323 324 326 313 307 315 292 290 302 303 308 308 305
139 95 138 189 211 191 169 210 222 301 255 277 301 260 191 236 245 190 178 192 213 269 314 311 303 292 274 261 266 278 298 307 315 305 299 299 293 288 296 302 308 313 315 330
55 316 193 213 103 276 257 246 217 244 174 244 304 273 351 297 259 258 255 251 260 277 313 311 298 284 263 259 253 259 266 288 291 290 296 297 293 303 303 305 310 320 323 329
118 211 249 190 183 188 238 221 236 245 333 239 262 254 77 27 303 269 267 270 264 294 306 297 291 266 256 245 247 241 254 267 283 291 297 298 310 303 302 306 312 321 323 328
201 260 245 283 341 327 217 223 224 217 233 256 231 271 268 285 293 282 271 267 278 299 297 279 273 258 249 241 233 235 247 245 264 272 281 295 299 305 310 311 314 318 325 326
265 253 249 265 268 259 253 254 233 222 230 249 267 264 272 284 289 286 275 271 281 288 283 270 257 261 245 231 225 228 234 236 250 270 279 287 302 307 312 314 322 324 326 329
210 279 301 280 260 258 265 257 248 246 243 246 262 273 282 285 315 353 322 307 287 281 283 283 271 267 257 233 222 220 226 230 240 256 265 279 296 302 304 311 320 330 327 333
219 273 310 275 205 283 276 255 238 242 244 246 251 257 280 291 291 299 306 299 291 290 291 289 282 273 251 230 217 220 221 221 234 254 268 274 280 288 293 299 302 304 310 321
235 250 279 289 304 244 22 220 243 262 260 244 249 268 277 284 286 289 287 286 284 285 290 301 292 273 256 234 223 222 217 222 234 250 256 261 264 270 279 283 287 292 302 308
238 251 279 271 303 292 241 85 59 197 308 248 243 263 285 305 301 282 238 250 281 293 297 298 304 302 293 260 233 224 227 226 235 245 250 248 249 259 266 268 270 278 282 287
223 253 256 226 275 264 66 106 149 294 239 29 332 294 317 321 297 27 186 213 243 258 273 281 288 287 273 264 239 234 240 239 242 241 244 247 241 244 252 257 261 264 260 262
169 213 227 241 270 279 275 155 170 287 72 61 15 340 304 262 286 327 312 294 284 282 286 281 269 263 263 252 232 235 243 241 240 235 234 233 232 232 239 247 248 251 255 255
180 175 193 204 241 263 144 136 206 45 246 312 333 323 308 292 292 296 297 295 289 284 291 283 279 274 262 241 230 236 240 239 236 233 232 232 230 228 229 235 236 235 239 246
232 219 231 211 226 252 197 255 284 316 296 300 308 304 307 298 285 289 290 291 288 288 289 288 279 277 266 254 239 253 258 254 245 237 238 239 234 231 226 232 235 240 240 246
235 232 229 298 248 263 283 271 259 274 277 289 294 293 300 292 281 288 288 286 276 269 275 278 276 268 274 274 261 251 263 269 261 252 249 248 245 240 234 229 237 242 236 235
347 154 218 259 274 273 283 340 343 314 316 302 293 291 288 286 281 285 287 286 282 282 272 260 268 275 280 287 281 274 261 264 260 253 249 253 248 240 237 240 231 231 239 230
208 239 236 255 280 300 306 333 340 309 300 298 298 296 289 287 285 285 281 280 284 277 271 272 275 280 283 283 280 281 278 264 258 255 249 248 248 241 243 254 260 235 246 261